CUTE-1 (CO-55) 1 27844U 03031E 25352.98324966 .00000301 00000+0 14973-3 0 9996 2 27844 98.6761 358.8057 0009449 355.5071 4.6022 14.24184574166021 CUBESAT XI-IV (CO-57) 1 27848U 03031J 25352.95279952 .00000254 00000+0 13094-3 0 9991 2 27848 98.6790 358.6327 0009695 13.5446 346.5991 14.23491779165732 CUBESAT XI-V 1 28895U 05043F 25352.89969748 .00001332 00000+0 22056-3 0 9997 2 28895 98.2722 140.0817 0015218 60.0647 300.2068 14.71922397 75225 CUTE-1.7+APD II (CO-65) 1 32785U 08021C 25351.68477250 .00005656 00000+0 38073-3 0 9996 2 32785 97.8081 324.8433 0007829 290.5969 69.4418 15.07103756957832 CANX-2 1 32790U 08021H 25352.88892209 .00004039 00000+0 29808-3 0 9990 2 32790 97.8425 324.6123 0009607 297.7253 62.2997 15.03820241957693 SEEDS II (CO-66) 1 32791U 08021J 25352.93873252 .00013528 00000+0 53734-3 0 9992 2 32791 97.7440 338.2982 0002072 176.4619 183.6633 15.25454877959747 SWISSCUBE 1 35932U 09051B 25352.65682430 .00001019 00000+0 21310-3 0 9998 2 35932 98.4147 252.3435 0008001 58.5463 301.6518 14.61973953862773 BEESAT-1 1 35933U 09051C 25352.16562787 .00000890 00000+0 19028-3 0 9996 2 35933 98.4077 251.8445 0006539 72.3751 287.8163 14.61290952862748 ITUPSAT1 1 35935U 09051E 25352.68510765 .00000772 00000+0 17071-3 0 9999 2 35935 98.4166 251.7456 0008744 79.2731 280.9452 14.60045903862393 TISAT 1 1 36799U 10035E 25352.75394027 .00016037 00000+0 67105-3 0 9995 2 36799 98.0609 279.5863 0003928 120.5464 239.6160 15.23662842840156 AEROCUBE 4.5A 1 38767U 12048K 25352.95065786 .00041492 00000+0 69200-3 0 9998 2 38767 64.6426 298.2063 0065699 229.8902 129.6470 15.49281939344436 STRAND-1 1 39090U 13009E 25352.93623757 .00000293 00000+0 11322-3 0 9998 2 39090 98.3821 172.6689 0009557 54.2120 305.9954 14.37010235671176 BRITE-AUSTRIA 1 39091U 13009F 25352.94365047 .00000169 00000+0 72062-4 0 9996 2 39091 98.3887 171.9042 0011207 61.5937 298.6378 14.36439328671171 NEE-01 PEGASO 1 39151U 13018B 25352.85952132 .00002999 00000+0 29844-3 0 9992 2 39151 98.0962 126.5107 0013680 42.4136 317.8137 14.92388794683793 POPACS 1 1 39268U 13055D 25352.03618346 .00218872 15221-4 59136-3 0 9990 2 39268 80.9527 204.6657 0108876 27.1470 333.5427 15.84713577644416 POPACS 2 1 39269U 13055E 25352.42891062 .00019862 00000+0 35800-3 0 9996 2 39269 80.9932 350.0931 0447283 52.0075 312.0651 14.83624955636336 POPACS 3 1 39270U 13055F 25352.62191640 .00009344 00000+0 23214-3 0 9995 2 39270 81.0049 64.3938 0566794 258.3882 95.3198 14.51960631612315 ZACUBE-1 (TSHEPISOSAT) 1 39417U 13066B 25351.39749824 .00003280 00000+0 27002-3 0 9998 2 39417 97.8056 307.9496 0042001 132.1904 228.2897 14.99124350653477 WNISAT-1 1 39423U 13066H 25352.91048629 .00000646 00000+0 12609-3 0 9999 2 39423 97.6931 150.1854 0165420 79.8653 282.1161 14.57654564640466 TRITON-1 1 39427U 13066M 25352.99408198 .00002801 00000+0 34612-3 0 9995 2 39427 97.8327 261.9618 0093479 100.9157 260.2591 14.80522358647416 GOMX-1 1 39430U 13066Q 25352.82924366 .00002217 00000+0 34397-3 0 9992 2 39430 97.6586 199.5737 0129295 296.9233 61.8811 14.68614572643434 CUBEBUG-2 (LO-74) 1 39440U 13066AA 25351.56788106 .00003439 00000+0 33426-3 0 9992 2 39440 97.8708 295.2332 0058016 269.4523 90.0047 14.92015584649893 NEE-02 KRYSAOR 1 39441U 13066AB 25351.76100244 .00002517 00000+0 28598-3 0 9996 2 39441 97.8738 287.5718 0066127 305.4504 54.0549 14.85627194649256 FUNCUBE-1 (AO-73) 1 39444U 13066AE 25352.90059119 .00006447 00000+0 43772-3 0 9997 2 39444 97.8075 316.2546 0041088 95.7115 264.8799 15.06054148652493 UWE-3 1 39446U 13066AG 25352.84474895 .00002541 00000+0 23140-3 0 9992 2 39446 97.8485 303.1990 0049937 198.9032 161.0336 14.95151860650616 BRITE-CA1 (TORONTO) 1 40020U 14033L 25352.89311382 .00001044 00000+0 16528-3 0 9992 2 40020 97.9497 120.4910 0080211 133.5479 227.2428 14.72228327615685 DUCHIFAT-1 1 40021U 14033M 25352.55525931 .00031704 00000+0 76738-3 0 9998 2 40021 98.0779 24.9788 0006964 16.3390 343.8078 15.41038104627740 NANOSATC-BR1 1 40024U 14033Q 25352.56621053 .00013005 00000+0 52686-3 0 9994 2 40024 98.0891 4.6858 0005872 90.3371 269.8537 15.24799797626399 QB50P1 1 40025U 14033R 25352.96247473 .00007006 00000+0 38324-3 0 9996 2 40025 98.0961 346.9530 0010978 116.2199 244.0161 15.14563951625719 QB50P2 1 40032U 14033Y 25352.90169579 .00007442 00000+0 43806-3 0 9993 2 40032 98.0637 334.0999 0009729 72.5731 287.6561 15.11915655625392 PERSEUS-M2 1 40037U 14033AD 25352.90510663 .00001273 00000+0 12270-3 0 9999 2 40037 97.9754 295.1160 0011883 171.3986 188.7439 14.94716821623843 PERSEUS-M1 1 40039U 14033AF 25352.82243837 .00001478 00000+0 14131-3 0 9993 2 40039 97.9465 289.3102 0011865 169.2043 190.9434 14.94777354623685 POLYITAN-1 1 40042U 14033AJ 25352.91333918 .00015027 00000+0 58896-3 0 9998 2 40042 98.1069 358.0029 0010232 62.1314 298.0957 15.25840607626032 TIGRISAT 1 40043U 14033AK 25352.36490284 .00002089 00000+0 25120-3 0 9996 2 40043 97.7561 141.9180 0049235 308.7743 50.9077 14.84150085618792 AEROCUBE 6A 1 40045U 14033AM 25352.93894953 .00006494 00000+0 58471-3 0 9991 2 40045 97.7031 157.3149 0039350 258.6149 101.0651 14.95355422619658 AEROCUBE 6B 1 40046U 14033AN 25352.90814098 .00005669 00000+0 49460-3 0 9992 2 40046 97.7017 156.7288 0038269 251.1658 108.5411 14.96675366619762 CANX-4 1 40055U 14034C 25352.56486247 .00000972 00000+0 13335-3 0 9990 2 40055 98.3357 215.9976 0011822 228.4584 131.5614 14.80802847617790 CANX-5 1 40056U 14034D 25352.56533462 .00000966 00000+0 13263-3 0 9996 2 40056 98.3360 216.0310 0011814 228.7446 131.2748 14.80818945608601 UKUBE-1 1 40074U 14037F 25352.88333129 .00008193 00000+0 51065-3 0 9994 2 40074 98.4145 332.8136 0003348 67.3195 292.8386 15.09852936621312 BRITE-PL2 (HEWELIUSZ) 1 40119U 14049B 25352.82991004 .00001739 00000+0 16981-3 0 9990 2 40119 97.8995 98.7253 0013985 352.9367 7.1653 14.93680941614513 AEROCUBE 5C 1 40965U 15058B 25352.72864699 .00003322 00000+0 30115-3 0 9993 2 40965 64.7680 103.4827 0137079 133.8787 227.3746 14.90220004338755 AEROCUBE 7 1 40966U 15058C 25352.67862166 .00004112 00000+0 34166-3 0 9993 2 40966 64.7638 89.5046 0127321 133.4692 227.7096 14.94035364338979 FOX-1A (AO-85) 1 40967U 15058D 25352.71623467 .00003291 00000+0 30463-3 0 9991 2 40967 64.7752 119.3111 0134231 127.6994 233.6379 14.89709201 86679 SINOD-D 1 1 40968U 15058E 25352.67561844 .00004456 00000+0 37200-3 0 9997 2 40968 64.7760 103.4741 0122611 125.7805 235.4782 14.94151046 89676 SNAP-3 ALICE 1 40970U 15058G 25352.39760208 .00034460 00000+0 10010-2 0 9991 2 40970 64.7607 355.3426 0043911 117.0785 243.4839 15.34350621 88949 LMRST-SAT 1 40971U 15058H 25352.76119403 .00003139 00000+0 29214-3 0 9994 2 40971 64.7758 115.1808 0136680 129.4919 231.8374 14.89362017 86679 SNAP-3 EDDIE 1 40972U 15058J 25352.96340115 .00030838 00000+0 87061-3 0 9993 2 40972 64.7529 345.3022 0046901 120.8718 239.7042 15.35140899 91151 PROPCUBE 3 1 40973U 15058K 25352.75543868 .00003736 00000+0 32069-3 0 9996 2 40973 64.7697 95.6499 0129773 131.5111 229.7225 14.92750807 87858 BISONSAT 1 40974U 15058L 25352.49740901 .00009213 00000+0 50760-3 0 9999 2 40974 64.7624 35.7704 0086198 126.7442 234.1635 15.11362019 88266 SNAP-3 JIMI 1 40975U 15058M 25352.58531545 .00004957 00000+0 36199-3 0 9992 2 40975 64.7671 70.1810 0112089 129.6611 231.4460 14.99887355 87118 PROPCUBE 1 (FLORA) 1 40976U 15058N 25352.82196380 .00003309 00000+0 31844-3 0 9996 2 40976 64.7739 133.7509 0136059 131.6266 229.6595 14.88029753 89418 SINOD-D 3 1 40977U 15058P 25352.75026549 .00004525 00000+0 39399-3 0 9992 2 40977 64.7728 118.5877 0124626 130.3268 230.8814 14.92362410 87816 HORYU-4 1 41340U 16012D 25352.86150687 .00040802 00000+0 66940-3 0 9991 2 41340 30.9942 267.9321 0006855 293.0866 66.9061 15.51140883542509 RAVAN 1 41849U 16067B 25352.56953376 .00025612 00000+0 64957-3 0 9996 2 41849 98.0160 218.2599 0005813 289.0531 71.0083 15.39669016499774 CELTEE 1 1 41850U 16067C 25352.53631150 .00005579 00000+0 28356-3 0 9991 2 41850 98.0870 201.7900 0002081 103.5054 256.6410 15.17320494498461 OPTICUBE 04 1 41851U 16067D 25352.53941370 .00001924 00000+0 12726-3 0 9994 2 41851 98.0822 190.3060 0016413 13.5011 346.6652 15.08587160497929 AEROCUBE 8D 1 41852U 16067E 25352.86388623 .00007270 00000+0 32971-3 0 9991 2 41852 98.0892 204.4358 0004886 49.4226 310.7433 15.21158347498624 AEROCUBE 8C 1 41853U 16067F 25352.58657872 .00007277 00000+0 32818-3 0 9993 2 41853 98.0755 201.6144 0005362 340.4739 19.6288 15.21347550498571 CORVUS BC2 1 42846U 17042X 25352.88902045 .00003372 00000+0 24280-3 0 9994 2 42846 97.3831 156.6449 0013860 13.3910 346.7682 15.04761928459936 CORVUS BC1 1 42847U 17042Y 25352.90864196 .00002606 00000+0 18750-3 0 9996 2 42847 97.3876 157.3485 0012034 353.1050 7.0010 15.05010304459967 MAKERSAT 0 1 43016U 17073D 25352.17659257 .00017333 00000+0 57929-3 0 9992 2 43016 97.4893 229.0758 0125922 192.0724 167.7489 15.23676789438826 SIRION PATHFINDER-2 1 43759U 18099B 25352.70031759 .00004814 00000+0 28077-3 0 9997 2 43759 97.4537 41.0333 0008652 195.5970 164.4996 15.12398049385328 CORVUS BC4 1 43767U 18099K 25352.60832920 .00004748 00000+0 29103-3 0 9991 2 43767 97.4348 35.8275 0007166 262.9979 97.0436 15.10606004385129 SPACEBEE-7 1 43816U 18099BL 25352.68526866 .00090852 00000+0 11301-2 0 9994 2 43816 97.4712 68.6561 0002921 144.9337 215.2112 15.59653843386450 SHIELDS 1 1 43850U 18104B 25352.48461179 .00134357 00000+0 52357-3 0 9998 2 43850 85.0063 259.5212 0008123 94.4514 265.7691 15.86679811391563 M2 PATHFINDER 1 45727U 20037E 25352.50391793 .00002090 00000+0 15755-3 0 9997 2 45727 97.8128 176.7933 0013440 49.2301 311.0088 15.03535130298331 NETSAT-4 1 46504U 20068U 25352.94778026 .00013202 00000+0 36735-3 0 9999 2 46504 97.8592 342.6653 0004406 233.3316 126.7522 15.36963328288026 NETSAT-3 1 46505U 20068V 25352.93068000 .00013673 00000+0 39812-3 0 9994 2 46505 97.8618 341.1538 0003989 257.8648 102.2148 15.35534782287957 NETSAT-1 1 46506U 20068W 25352.94740944 .00010407 00000+0 36929-3 0 9998 2 46506 97.8666 337.4082 0003838 286.4340 73.6477 15.29262302287701 NETSAT-2 1 46507U 20068X 25352.94523371 .00016262 00000+0 44435-3 0 9998 2 46507 97.8604 342.1434 0002420 286.2788 73.8189 15.37482114287962 WILDTRACKCUBE-SIMBA 1 47941U 21022K 25352.97785641 .00088843 00000+0 79352-3 0 9995 2 47941 97.4060 263.9872 0005105 11.3587 348.7788 15.68109726263063 GREENCUBE (IO-117) 1 53109U 22080E 25352.02348561 -.00000003 00000+0 00000+0 0 9998 2 53109 70.1588 1.2433 0009188 326.6831 33.3249 6.42583162 80422 SITRO-AIS 5 (KATYS) 1 57176U 23091L 25352.95156468 .00009473 00000+0 38584-3 0 9995 2 57176 97.5342 50.4991 0013115 24.1208 336.0641 15.24623669136832 SITRO-AIS 6 (CHIRKIN) 1 57192U 23091AC 25352.93947100 .00005456 00000+0 23424-3 0 9996 2 57192 97.5344 50.3401 0013233 26.5595 333.6317 15.23049979136820 SITRO-AIS 8 (ANOKHIN) 1 57193U 23091AD 25352.97898862 .00011382 00000+0 43708-3 0 9993 2 57193 97.5336 51.4895 0012281 22.0830 338.0935 15.26552248136901 SITRO-AIS 7 (FARTUSHNIY) 1 57194U 23091AE 25352.97805234 .00005565 00000+0 24030-3 0 9998 2 57194 97.5343 50.2776 0013118 27.3211 332.8713 15.22842490136820 SITRO-AIS 10 (BURDAEV) 1 57199U 23091AK 25352.93851179 .00014479 00000+0 48374-3 0 9999 2 57199 97.5352 54.9332 0007925 5.0144 355.1174 15.31098360137112 SITRO-AIS 9 (SHCHUKIN) 1 57201U 23091AM 25352.98439103 .00014477 00000+0 48808-3 0 9997 2 57201 97.5352 54.8217 0007942 5.2299 354.9023 15.30805197137112 SITRO-AIS 12 (SMIRENNIY) 1 57204U 23091AQ 25352.93974721 .00014367 00000+0 48115-3 0 9994 2 57204 97.5361 55.1453 0007688 358.8256 1.2966 15.31026047137127 SITRO-AIS 11 (SHEFFER) 1 57208U 23091AU 25352.99449249 .00014802 00000+0 49136-3 0 9994 2 57208 97.5360 55.3544 0007574 358.3214 1.8000 15.31305279137140 SITRO-AIS 25 1 59066U 24039R 25352.97841063 .00004752 00000+0 38700-3 0 9997 2 59066 95.3962 111.3629 0148243 237.1076 121.5813 14.91497774 97845 SITRO-AIS 26 1 59067U 24039S 25352.95713429 .00005775 00000+0 47166-3 0 9992 2 59067 95.3963 111.2792 0148386 237.5547 121.1257 14.91326395 97839 SITRO-AIS 27 1 59068U 24039T 25352.97522647 .00004856 00000+0 39396-3 0 9990 2 59068 95.3963 111.4858 0147646 236.5005 122.2040 14.91697302 97854 SITRO-AIS 28 1 59071U 24039U 25352.95697439 .00006100 00000+0 49372-3 0 9993 2 59071 95.3964 111.5106 0147427 236.4018 122.3063 14.91741806 97851 GRBBETA 1 60237U 24128C 25352.73189146 .00004105 00000+0 29441-3 0 9993 2 60237 61.9894 128.5920 0056027 97.7517 262.9942 15.04814920 79093 OOV-CUBE (TUBSAT-30) 1 60240U 24128F 25352.93967674 .00002443 00000+0 19675-3 0 9990 2 60240 61.9940 133.6014 0058295 95.5102 265.2642 15.01645913 79033 ROBUSTA-3A (MEDITERRAN*) 1 60243U 24128J 25352.89835928 .00006857 00000+0 43787-3 0 9998 2 60243 61.9862 124.3006 0055852 92.0680 268.6811 15.08309578 79199 LASARSAT 1 62391U 24247Q 25352.59572227 .00019004 00000+0 55997-3 0 9997 2 62391 44.9759 188.2975 0002766 186.0159 174.0694 15.34797644 55463 CROCUBE 1 62394U 24247T 25352.93338576 .00020132 00000+0 57938-3 0 9996 2 62394 44.9731 185.6861 0004086 183.4837 176.6021 15.35501774 55529